Year,Month,Day,Hour,Minute,Value (Times are PST for temperature in C)
2017,04,30,00,00,8.00
2017,04,30,00,01,8.00
2017,04,30,00,02,8.10
2017,04,30,00,03,8.10
2017,04,30,00,04,8.10
2017,04,30,00,05,8.10
2017,04,30,00,06,8.10
2017,04,30,00,07,8.10
2017,04,30,00,08,8.20
2017,04,30,00,09,8.20
2017,04,30,00,10,8.20
2017,04,30,00,11,8.20
2017,04,30,00,12,8.20
2017,04,30,00,13,8.20
2017,04,30,00,14,8.20
2017,04,30,00,15,8.20
2017,04,30,00,16,8.20
2017,04,30,00,17,8.20
2017,04,30,00,18,8.20
2017,04,30,00,19,8.20
2017,04,30,00,20,8.20
2017,04,30,00,21,8.20
2017,04,30,00,22,8.20
2017,04,30,00,23,8.20
2017,04,30,00,24,8.20
2017,04,30,00,25,8.20
2017,04,30,00,26,8.20
2017,04,30,00,27,8.10
2017,04,30,00,28,8.10
2017,04,30,00,29,8.10
2017,04,30,00,30,8.10
2017,04,30,00,31,8.10
2017,04,30,00,32,8.10
2017,04,30,00,33,8.10
2017,04,30,00,34,8.10
2017,04,30,00,35,8.10
2017,04,30,00,36,8.10
2017,04,30,00,37,8.10
2017,04,30,00,38,8.10
2017,04,30,00,39,8.10
2017,04,30,00,40,8.00
2017,04,30,00,41,8.00
2017,04,30,00,42,8.00
2017,04,30,00,43,8.00
2017,04,30,00,44,8.00
2017,04,30,00,45,8.00
2017,04,30,00,46,8.00
2017,04,30,00,47,8.00
2017,04,30,00,48,7.90
2017,04,30,00,49,7.90
2017,04,30,00,50,7.90
2017,04,30,00,51,7.90
2017,04,30,00,52,7.90
2017,04,30,00,53,7.90
2017,04,30,00,54,7.90
2017,04,30,00,55,7.90
2017,04,30,00,56,7.80
2017,04,30,00,57,7.80
2017,04,30,00,58,7.80
2017,04,30,00,59,7.80
2017,04,30,01,00,7.80
2017,04,30,01,01,7.80
2017,04,30,01,02,7.80
2017,04,30,01,03,7.80
2017,04,30,01,04,7.80
2017,04,30,01,05,7.80
2017,04,30,01,06,7.80
2017,04,30,01,07,7.80
2017,04,30,01,08,7.80
2017,04,30,01,09,7.70
2017,04,30,01,10,7.70
2017,04,30,01,11,7.70
2017,04,30,01,12,7.80
2017,04,30,01,13,7.70
2017,04,30,01,14,7.80
2017,04,30,01,15,7.80
2017,04,30,01,16,7.80
2017,04,30,01,17,7.80
2017,04,30,01,18,7.80
2017,04,30,01,19,7.80
2017,04,30,01,20,7.80
2017,04,30,01,21,7.80
2017,04,30,01,22,7.80
2017,04,30,01,23,7.80
2017,04,30,01,24,7.80
2017,04,30,01,25,7.80
2017,04,30,01,26,7.80
2017,04,30,01,27,7.70
2017,04,30,01,28,7.70
2017,04,30,01,29,7.70
2017,04,30,01,30,7.70
2017,04,30,01,31,7.60
2017,04,30,01,32,7.60
2017,04,30,01,33,7.60
2017,04,30,01,34,7.50
2017,04,30,01,35,7.50
2017,04,30,01,36,7.50
2017,04,30,01,37,7.50
2017,04,30,01,38,7.40
2017,04,30,01,39,7.40
2017,04,30,01,40,7.40
2017,04,30,01,41,7.40
2017,04,30,01,42,7.40
2017,04,30,01,43,7.40
2017,04,30,01,44,7.30
2017,04,30,01,45,7.30
2017,04,30,01,46,7.30
2017,04,30,01,47,7.30
2017,04,30,01,48,7.30
2017,04,30,01,49,7.30
2017,04,30,01,50,7.30
2017,04,30,01,51,7.30
2017,04,30,01,52,7.30
2017,04,30,01,53,7.30
2017,04,30,01,54,7.30
2017,04,30,01,55,7.30
2017,04,30,01,56,7.30
2017,04,30,01,57,7.30
2017,04,30,01,58,7.30
2017,04,30,01,59,7.30
2017,04,30,02,00,7.30
2017,04,30,02,01,7.30
2017,04,30,02,02,7.30
2017,04,30,02,03,7.30
2017,04,30,02,04,7.30
2017,04,30,02,05,7.20
2017,04,30,02,06,7.20
2017,04,30,02,07,7.20
2017,04,30,02,08,7.20
2017,04,30,02,09,7.20
2017,04,30,02,10,7.20
2017,04,30,02,11,7.20
2017,04,30,02,12,7.20
2017,04,30,02,13,7.20
2017,04,30,02,14,7.20
2017,04,30,02,15,7.20
2017,04,30,02,16,7.20
2017,04,30,02,17,7.20
2017,04,30,02,18,7.20
2017,04,30,02,19,7.20
2017,04,30,02,20,7.20
2017,04,30,02,21,7.20
2017,04,30,02,22,7.30
2017,04,30,02,23,7.30
2017,04,30,02,24,7.30
2017,04,30,02,25,7.30
2017,04,30,02,26,7.30
2017,04,30,02,27,7.30
2017,04,30,02,28,7.30
2017,04,30,02,29,7.30
2017,04,30,02,30,7.30
2017,04,30,02,31,7.30
2017,04,30,02,32,7.30
2017,04,30,02,33,7.30
2017,04,30,02,34,7.30
2017,04,30,02,35,7.30
2017,04,30,02,36,7.30
2017,04,30,02,37,7.30
2017,04,30,02,38,7.30
2017,04,30,02,39,7.30
2017,04,30,02,40,7.30
2017,04,30,02,41,7.30
2017,04,30,02,42,7.30
2017,04,30,02,43,7.30
2017,04,30,02,44,7.30
2017,04,30,02,45,7.30
2017,04,30,02,46,7.30
2017,04,30,02,47,7.30
2017,04,30,02,48,7.30
2017,04,30,02,49,7.30
2017,04,30,02,50,7.30
2017,04,30,02,51,7.30
2017,04,30,02,52,7.30
2017,04,30,02,53,7.30
2017,04,30,02,54,7.30
2017,04,30,02,55,7.30
2017,04,30,02,56,7.30
2017,04,30,02,57,7.30
2017,04,30,02,58,7.30
2017,04,30,02,59,7.30
2017,04,30,03,00,7.30
2017,04,30,03,01,7.30
2017,04,30,03,02,7.20
2017,04,30,03,03,7.20
2017,04,30,03,04,7.20
2017,04,30,03,05,7.20
2017,04,30,03,06,7.20
2017,04,30,03,07,7.20
2017,04,30,03,08,7.20
2017,04,30,03,09,7.20
2017,04,30,03,10,7.20
2017,04,30,03,11,7.20
2017,04,30,03,12,7.20
2017,04,30,03,13,7.20
2017,04,30,03,14,7.20
2017,04,30,03,15,7.20
2017,04,30,03,16,7.20
2017,04,30,03,17,7.20
2017,04,30,03,18,7.20
2017,04,30,03,19,7.20
2017,04,30,03,20,7.20
2017,04,30,03,21,7.20
2017,04,30,03,22,7.20
2017,04,30,03,23,7.20
2017,04,30,03,24,7.20
2017,04,30,03,25,7.20
2017,04,30,03,26,7.20
2017,04,30,03,27,7.20
2017,04,30,03,28,7.20
2017,04,30,03,29,7.20
2017,04,30,03,30,7.20
2017,04,30,03,31,7.10
2017,04,30,03,32,7.10
2017,04,30,03,33,7.20
2017,04,30,03,34,7.20
2017,04,30,03,35,7.20
2017,04,30,03,36,7.20
2017,04,30,03,37,7.20
2017,04,30,03,38,7.20
2017,04,30,03,39,7.20
2017,04,30,03,40,7.20
2017,04,30,03,41,7.20
2017,04,30,03,42,7.10
2017,04,30,03,43,7.10
2017,04,30,03,44,7.10
2017,04,30,03,45,7.10
2017,04,30,03,46,7.20
2017,04,30,03,47,7.10
2017,04,30,03,48,7.20
2017,04,30,03,49,7.20
2017,04,30,03,50,7.20
2017,04,30,03,51,7.20
2017,04,30,03,52,7.20
2017,04,30,03,53,7.20
2017,04,30,03,54,7.10
2017,04,30,03,55,7.10
2017,04,30,03,56,7.10
2017,04,30,03,57,7.10
2017,04,30,03,58,7.10
2017,04,30,03,59,7.00
2017,04,30,04,00,7.00
2017,04,30,04,01,7.00
2017,04,30,04,02,7.00
2017,04,30,04,03,7.10
2017,04,30,04,04,7.10
2017,04,30,04,08,7.10
2017,04,30,04,09,7.10
2017,04,30,04,10,7.20
2017,04,30,04,11,7.20
2017,04,30,04,12,7.20
2017,04,30,04,13,7.20
2017,04,30,04,14,7.20
2017,04,30,04,15,7.20
2017,04,30,04,16,7.20
2017,04,30,04,17,7.20
2017,04,30,04,18,7.20
2017,04,30,04,19,7.20
2017,04,30,04,20,7.20
2017,04,30,04,21,7.20
2017,04,30,04,22,7.20
2017,04,30,04,23,7.10
2017,04,30,04,24,7.10
2017,04,30,04,25,7.10
2017,04,30,04,26,7.10
2017,04,30,04,27,7.10
2017,04,30,04,28,7.10
2017,04,30,04,29,7.10
2017,04,30,04,30,7.00
2017,04,30,04,31,7.00
2017,04,30,04,32,7.00
2017,04,30,04,33,7.00
2017,04,30,04,34,6.90
2017,04,30,04,35,6.90
2017,04,30,04,36,6.90
2017,04,30,04,37,6.90
2017,04,30,04,38,6.90
2017,04,30,04,39,6.90
2017,04,30,04,40,6.90
2017,04,30,04,41,6.90
2017,04,30,04,42,6.90
2017,04,30,04,43,6.90
2017,04,30,04,44,6.90
2017,04,30,04,45,6.90
2017,04,30,04,46,6.90
2017,04,30,04,47,6.90
2017,04,30,04,48,6.90
2017,04,30,04,49,6.90
2017,04,30,04,50,6.90
2017,04,30,04,51,6.90
2017,04,30,04,52,6.90
2017,04,30,04,53,6.90
2017,04,30,04,54,6.90
2017,04,30,04,55,6.90
2017,04,30,04,56,6.90
2017,04,30,04,57,6.90
2017,04,30,04,58,6.90
2017,04,30,04,59,6.90
2017,04,30,05,00,6.90
2017,04,30,05,01,6.90
2017,04,30,05,02,6.90
2017,04,30,05,03,6.90
2017,04,30,05,04,6.90
2017,04,30,05,05,6.90
2017,04,30,05,06,6.90
2017,04,30,05,07,6.90
2017,04,30,05,08,6.90
2017,04,30,05,09,6.90
2017,04,30,05,10,6.90
2017,04,30,05,11,6.90
2017,04,30,05,12,6.90
2017,04,30,05,13,7.00
2017,04,30,05,14,7.10
2017,04,30,05,15,7.20
2017,04,30,05,16,7.20
2017,04,30,05,17,7.30
2017,04,30,05,18,7.40
2017,04,30,05,19,7.40
2017,04,30,05,20,7.40
2017,04,30,05,21,7.50
2017,04,30,05,22,7.50
2017,04,30,05,23,7.60
2017,04,30,05,24,7.60
2017,04,30,05,25,7.60
2017,04,30,05,26,7.60
2017,04,30,05,27,7.60
2017,04,30,05,28,7.60
2017,04,30,05,29,7.60
2017,04,30,05,30,7.50
2017,04,30,05,31,7.50
2017,04,30,05,32,7.50
2017,04,30,05,33,7.40
2017,04,30,05,34,7.40
2017,04,30,05,35,7.30
2017,04,30,05,36,7.30
2017,04,30,05,37,7.20
2017,04,30,05,38,7.20
2017,04,30,05,39,7.10
2017,04,30,05,40,7.00
2017,04,30,05,41,7.00
2017,04,30,05,42,6.90
2017,04,30,05,43,6.90
2017,04,30,05,44,6.90
2017,04,30,05,45,6.80
2017,04,30,05,46,6.80
2017,04,30,05,47,6.80
2017,04,30,05,48,6.80
2017,04,30,05,49,6.80
2017,04,30,05,50,6.80
2017,04,30,05,51,6.80
2017,04,30,05,52,6.80
2017,04,30,05,53,6.90
2017,04,30,05,54,6.90
2017,04,30,05,55,6.90
2017,04,30,05,56,6.90
2017,04,30,05,57,6.90
2017,04,30,05,58,6.90
2017,04,30,05,59,6.90
2017,04,30,06,00,6.90
2017,04,30,06,01,6.90
2017,04,30,06,02,6.80
2017,04,30,06,03,6.80
2017,04,30,06,04,6.80
2017,04,30,06,05,6.80
2017,04,30,06,06,6.80
2017,04,30,06,07,6.80
2017,04,30,06,08,6.80
2017,04,30,06,09,6.80
2017,04,30,06,10,6.80
2017,04,30,06,11,6.80
2017,04,30,06,12,6.80
2017,04,30,06,13,6.70
2017,04,30,06,14,6.70
2017,04,30,06,15,6.70
2017,04,30,06,16,6.70
2017,04,30,06,17,6.70
2017,04,30,06,18,6.60
2017,04,30,06,19,6.60
2017,04,30,06,20,6.60
2017,04,30,06,21,6.60
2017,04,30,06,22,6.60
2017,04,30,06,23,6.60
2017,04,30,06,24,6.60
2017,04,30,06,25,6.60
2017,04,30,06,26,6.60
2017,04,30,06,27,6.60
2017,04,30,06,28,6.60
2017,04,30,06,29,6.60
2017,04,30,06,30,6.60
2017,04,30,06,31,6.60
2017,04,30,06,32,6.60
2017,04,30,06,33,6.60
2017,04,30,06,34,6.60
2017,04,30,06,35,6.60
2017,04,30,06,36,6.60
2017,04,30,06,37,6.60
2017,04,30,06,38,6.60
2017,04,30,06,39,6.70
2017,04,30,06,40,6.70
2017,04,30,06,41,6.70
2017,04,30,06,42,6.70
2017,04,30,06,43,6.70
2017,04,30,06,44,6.70
2017,04,30,06,45,6.80
2017,04,30,06,46,6.80
2017,04,30,06,47,6.80
2017,04,30,06,48,6.90
2017,04,30,06,49,6.90
2017,04,30,06,50,6.90
2017,04,30,06,51,7.00
2017,04,30,06,52,7.00
2017,04,30,06,53,7.10
2017,04,30,06,54,7.10
2017,04,30,06,55,7.20
2017,04,30,06,56,7.20
2017,04,30,06,57,7.20
2017,04,30,06,58,7.20
2017,04,30,06,59,7.20
2017,04,30,07,00,7.30
2017,04,30,07,01,7.30
2017,04,30,07,02,7.30
2017,04,30,07,03,7.30
2017,04,30,07,04,7.40
2017,04,30,07,05,7.40
2017,04,30,07,06,7.40
2017,04,30,07,07,7.40
2017,04,30,07,08,7.50
2017,04,30,07,09,7.50
2017,04,30,07,10,7.60
2017,04,30,07,11,7.60
2017,04,30,07,12,7.60
2017,04,30,07,13,7.70
2017,04,30,07,14,7.70
2017,04,30,07,15,7.80
2017,04,30,07,16,7.80
2017,04,30,07,17,7.80
2017,04,30,07,18,7.90
2017,04,30,07,19,7.90
2017,04,30,07,20,7.90
2017,04,30,07,21,8.00
2017,04,30,07,22,8.00
2017,04,30,07,23,8.10
2017,04,30,07,24,8.10
2017,04,30,07,25,8.20
2017,04,30,07,26,8.20
2017,04,30,07,27,8.30
2017,04,30,07,28,8.30
2017,04,30,07,29,8.40
2017,04,30,07,30,8.40
2017,04,30,07,31,8.50
2017,04,30,07,32,8.50
2017,04,30,07,33,8.60
2017,04,30,07,34,8.70
2017,04,30,07,35,8.70
2017,04,30,07,36,8.70
2017,04,30,07,37,8.80
2017,04,30,07,38,8.80
2017,04,30,07,39,8.80
2017,04,30,07,40,8.90
2017,04,30,07,41,8.90
2017,04,30,07,42,9.00
2017,04,30,07,43,9.10
2017,04,30,07,44,9.10
2017,04,30,07,45,9.20
2017,04,30,07,46,9.20
2017,04,30,07,47,9.30
2017,04,30,07,48,9.30
2017,04,30,07,49,9.30
2017,04,30,07,50,9.30
2017,04,30,07,51,9.40
2017,04,30,07,52,9.40
2017,04,30,07,53,9.40
2017,04,30,07,54,9.50
2017,04,30,07,55,9.50
2017,04,30,07,56,9.60
2017,04,30,07,57,9.70
2017,04,30,07,58,9.70
2017,04,30,07,59,9.80
2017,04,30,08,00,9.80
2017,04,30,08,01,9.90
2017,04,30,08,02,9.90
2017,04,30,08,03,9.90
2017,04,30,08,04,9.90
2017,04,30,08,05,10.00
2017,04,30,08,06,10.00
2017,04,30,08,07,10.10
2017,04,30,08,08,10.10
2017,04,30,08,09,10.10
2017,04,30,08,10,10.10
2017,04,30,08,11,10.20
2017,04,30,08,12,10.20
2017,04,30,08,13,10.20
2017,04,30,08,14,10.10
2017,04,30,08,15,10.10
2017,04,30,08,16,10.10
2017,04,30,08,17,10.10
2017,04,30,08,18,10.20
2017,04,30,08,19,10.20
2017,04,30,08,20,10.20
2017,04,30,08,21,10.30
2017,04,30,08,22,10.30
2017,04,30,08,23,10.40
2017,04,30,08,24,10.40
2017,04,30,08,25,10.40
2017,04,30,08,26,10.40
2017,04,30,08,27,10.40
2017,04,30,08,28,10.40
2017,04,30,08,29,10.30
2017,04,30,08,30,10.30
2017,04,30,08,31,10.30
2017,04,30,08,32,10.30
2017,04,30,08,33,10.30
2017,04,30,08,34,10.30
2017,04,30,08,35,10.30
2017,04,30,08,36,10.30
2017,04,30,08,37,10.40
2017,04,30,08,38,10.50
2017,04,30,08,39,10.50
2017,04,30,08,40,10.60
2017,04,30,08,41,10.60
2017,04,30,08,42,10.70
2017,04,30,08,43,10.70
2017,04,30,08,44,10.70
2017,04,30,08,45,10.80
2017,04,30,08,46,10.80
2017,04,30,08,47,10.80
2017,04,30,08,48,10.90
2017,04,30,08,49,10.90
2017,04,30,08,50,10.90
2017,04,30,08,51,10.90
2017,04,30,08,52,10.90
2017,04,30,08,53,10.80
2017,04,30,08,54,10.80
2017,04,30,08,55,10.80
2017,04,30,08,56,10.80
2017,04,30,08,57,10.70
2017,04,30,08,58,10.70
2017,04,30,08,59,10.70
2017,04,30,09,00,10.70
2017,04,30,09,01,10.60
2017,04,30,09,02,10.70
2017,04,30,09,03,10.70
2017,04,30,09,04,10.70
2017,04,30,09,05,10.80
2017,04,30,09,06,10.80
2017,04,30,09,07,10.80
2017,04,30,09,08,10.80
2017,04,30,09,09,10.80
2017,04,30,09,10,10.90
2017,04,30,09,11,10.90
2017,04,30,09,12,10.90
2017,04,30,09,13,10.90
2017,04,30,09,14,10.90
2017,04,30,09,15,10.90
2017,04,30,09,16,10.90
2017,04,30,09,17,10.90
2017,04,30,09,18,10.90
2017,04,30,09,19,10.90
2017,04,30,09,20,10.90
2017,04,30,09,21,10.90
2017,04,30,09,22,10.90
2017,04,30,09,23,10.90
2017,04,30,09,24,10.90
2017,04,30,09,25,10.90
2017,04,30,09,26,10.90
2017,04,30,09,27,10.90
2017,04,30,09,28,10.90
2017,04,30,09,29,10.90
2017,04,30,09,30,10.90
2017,04,30,09,31,10.90
2017,04,30,09,32,11.00
2017,04,30,09,33,11.00
2017,04,30,09,34,11.00
2017,04,30,09,35,11.10
2017,04,30,09,36,11.10
2017,04,30,09,37,11.10
2017,04,30,09,38,11.10
2017,04,30,09,39,11.20
2017,04,30,09,40,11.30
2017,04,30,09,41,11.30
2017,04,30,09,42,11.30
2017,04,30,09,43,11.30
2017,04,30,09,44,11.30
2017,04,30,09,45,11.20
2017,04,30,09,46,11.20
2017,04,30,09,47,11.20
2017,04,30,09,48,11.20
2017,04,30,09,49,11.20
2017,04,30,09,50,11.20
2017,04,30,09,51,11.20
2017,04,30,09,52,11.20
2017,04,30,09,53,11.20
2017,04,30,09,54,11.10
2017,04,30,09,55,11.10
2017,04,30,09,56,11.10
2017,04,30,09,57,11.20
2017,04,30,09,58,11.20
2017,04,30,09,59,11.20
2017,04,30,10,00,11.20
2017,04,30,10,01,11.30
2017,04,30,10,02,11.30
2017,04,30,10,03,11.40
2017,04,30,10,04,11.40
2017,04,30,10,05,11.50
2017,04,30,10,06,11.50
2017,04,30,10,07,11.60
2017,04,30,10,08,11.50
2017,04,30,10,09,11.40
2017,04,30,10,10,11.40
2017,04,30,10,11,11.30
2017,04,30,10,12,11.30
2017,04,30,10,13,11.40
2017,04,30,10,14,11.40
2017,04,30,10,15,11.40
2017,04,30,10,16,11.40
2017,04,30,10,17,11.50
2017,04,30,10,18,11.60
2017,04,30,10,19,11.70
2017,04,30,10,20,11.80
2017,04,30,10,21,11.80
2017,04,30,10,22,11.90
2017,04,30,10,23,12.00
2017,04,30,10,24,12.10
2017,04,30,10,25,12.20
2017,04,30,10,26,12.20
2017,04,30,10,27,12.30
2017,04,30,10,28,12.40
2017,04,30,10,29,12.40
2017,04,30,10,30,12.40
2017,04,30,10,31,12.30
2017,04,30,10,32,12.30
2017,04,30,10,33,12.30
2017,04,30,10,34,12.30
2017,04,30,10,35,12.30
2017,04,30,10,36,12.20
2017,04,30,10,37,12.20
2017,04,30,10,38,12.20
2017,04,30,10,39,12.20
2017,04,30,10,40,12.20
2017,04,30,10,41,12.20
2017,04,30,10,42,12.20
2017,04,30,10,43,12.10
2017,04,30,10,44,12.10
2017,04,30,10,45,12.00
2017,04,30,10,46,12.00
2017,04,30,10,47,11.90
2017,04,30,10,48,11.90
2017,04,30,10,49,11.80
2017,04,30,10,50,11.70
2017,04,30,10,51,11.60
2017,04,30,10,52,11.60
2017,04,30,10,53,11.60
2017,04,30,10,54,11.60
2017,04,30,10,55,11.70
2017,04,30,10,56,11.70
2017,04,30,10,57,11.70
2017,04,30,10,58,11.70
2017,04,30,10,59,11.70
2017,04,30,11,00,11.70
2017,04,30,11,01,11.60
2017,04,30,11,02,11.60
2017,04,30,11,03,11.60
2017,04,30,11,04,11.60
2017,04,30,11,05,11.60
2017,04,30,11,06,11.70
2017,04,30,11,07,11.70
2017,04,30,11,08,11.70
2017,04,30,11,09,11.70
2017,04,30,11,10,11.80
2017,04,30,11,11,11.90
2017,04,30,11,12,12.10
2017,04,30,11,13,12.20
2017,04,30,11,14,12.20
2017,04,30,11,15,12.20
2017,04,30,11,16,12.30
2017,04,30,11,17,12.30
2017,04,30,11,18,12.40
2017,04,30,11,19,12.40
2017,04,30,11,20,12.50
2017,04,30,11,21,12.50
2017,04,30,11,22,12.60
2017,04,30,11,23,12.60
2017,04,30,11,24,12.60
2017,04,30,11,25,12.60
2017,04,30,11,26,12.50
2017,04,30,11,27,12.50
2017,04,30,11,28,12.50
2017,04,30,11,29,12.50
2017,04,30,11,30,12.60
2017,04,30,11,31,12.60
2017,04,30,11,32,12.70
2017,04,30,11,33,12.80
2017,04,30,11,34,12.80
2017,04,30,11,35,12.80
2017,04,30,11,36,12.80
2017,04,30,11,37,12.80
2017,04,30,11,38,12.80
2017,04,30,11,39,12.80
2017,04,30,11,40,12.80
2017,04,30,11,41,12.80
2017,04,30,11,42,12.70
2017,04,30,11,43,12.60
2017,04,30,11,44,12.50
2017,04,30,11,45,12.50
2017,04,30,11,46,12.40
2017,04,30,11,47,12.40
2017,04,30,11,48,12.40
2017,04,30,11,49,12.30
2017,04,30,11,50,12.30
2017,04,30,11,51,12.30
2017,04,30,11,52,12.30
2017,04,30,11,53,12.30
2017,04,30,11,54,12.40
2017,04,30,11,55,12.40
2017,04,30,11,56,12.40
2017,04,30,11,57,12.40
2017,04,30,11,58,12.40
2017,04,30,11,59,12.40
2017,04,30,12,00,12.40
2017,04,30,12,01,12.40
2017,04,30,12,02,12.40
2017,04,30,12,03,12.40
2017,04,30,12,04,12.40
2017,04,30,12,05,12.40
2017,04,30,12,06,12.40
2017,04,30,12,07,12.50
2017,04,30,12,08,12.50
2017,04,30,12,09,12.50
2017,04,30,12,10,12.60
2017,04,30,12,11,12.60
2017,04,30,12,12,12.60
2017,04,30,12,13,12.60
2017,04,30,12,14,12.60
2017,04,30,12,15,12.70
2017,04,30,12,16,12.70
2017,04,30,12,17,12.70
2017,04,30,12,18,12.80
2017,04,30,12,19,12.90
2017,04,30,12,20,13.00
2017,04,30,12,21,13.10
2017,04,30,12,22,13.10
2017,04,30,12,23,13.20
2017,04,30,12,24,13.20
2017,04,30,12,25,13.20
2017,04,30,12,26,13.20
2017,04,30,12,27,13.30
2017,04,30,12,28,13.30
2017,04,30,12,29,13.20
2017,04,30,12,30,13.20
2017,04,30,12,31,13.20
2017,04,30,12,32,13.20
2017,04,30,12,33,13.10
2017,04,30,12,34,13.10
2017,04,30,12,35,13.20
2017,04,30,12,36,13.20
2017,04,30,12,37,13.20
2017,04,30,12,38,13.30
2017,04,30,12,39,13.40
2017,04,30,12,40,13.40
2017,04,30,12,41,13.40
2017,04,30,12,42,13.40
2017,04,30,12,43,13.50
2017,04,30,12,44,13.50
2017,04,30,12,45,13.50
2017,04,30,12,46,13.50
2017,04,30,12,47,13.50
2017,04,30,12,48,13.50
2017,04,30,12,49,13.50
2017,04,30,12,50,13.50
2017,04,30,12,51,13.50
2017,04,30,12,52,13.40
2017,04,30,12,53,13.30
2017,04,30,12,54,13.30
2017,04,30,12,55,13.20
2017,04,30,12,56,13.20
2017,04,30,12,57,13.20
2017,04,30,12,58,13.30
2017,04,30,12,59,13.30
2017,04,30,13,00,13.30
2017,04,30,13,01,13.30
2017,04,30,13,02,13.30
2017,04,30,13,03,13.30
2017,04,30,13,04,13.30
2017,04,30,13,05,13.30
2017,04,30,13,06,13.40
2017,04,30,13,07,13.50
2017,04,30,13,08,13.60
2017,04,30,13,09,13.60
2017,04,30,13,10,13.70
2017,04,30,13,11,13.80
2017,04,30,13,12,13.80
2017,04,30,13,13,13.80
2017,04,30,13,14,13.90
2017,04,30,13,15,13.90
2017,04,30,13,16,14.00
2017,04,30,13,17,14.10
2017,04,30,13,18,14.10
2017,04,30,13,19,14.20
2017,04,30,13,20,14.20
2017,04,30,13,21,14.20
2017,04,30,13,22,14.20
2017,04,30,13,23,14.20
2017,04,30,13,24,14.10
2017,04,30,13,25,14.10
2017,04,30,13,26,14.10
2017,04,30,13,27,14.10
2017,04,30,13,28,14.20
2017,04,30,13,29,14.20
2017,04,30,13,30,14.30
2017,04,30,13,31,14.40
2017,04,30,13,32,14.40
2017,04,30,13,33,14.40
2017,04,30,13,34,14.40
2017,04,30,13,35,14.30
2017,04,30,13,36,14.30
2017,04,30,13,37,14.20
2017,04,30,13,38,14.20
2017,04,30,13,39,14.20
2017,04,30,13,40,14.30
2017,04,30,13,41,14.30
2017,04,30,13,42,14.30
2017,04,30,13,43,14.30
2017,04,30,13,44,14.30
2017,04,30,13,45,14.30
2017,04,30,13,46,14.20
2017,04,30,13,47,14.10
2017,04,30,13,48,14.10
2017,04,30,13,49,14.00
2017,04,30,13,50,13.90
2017,04,30,13,51,13.90
2017,04,30,13,52,13.80
2017,04,30,13,53,13.80
2017,04,30,13,54,13.80
2017,04,30,13,55,13.80
2017,04,30,13,56,13.70
2017,04,30,13,57,13.70
2017,04,30,13,58,13.60
2017,04,30,13,59,13.50
2017,04,30,14,00,13.60
2017,04,30,14,01,13.60
2017,04,30,14,02,13.70
2017,04,30,14,03,13.80
2017,04,30,14,04,13.90
2017,04,30,14,05,14.00
2017,04,30,14,06,14.10
2017,04,30,14,07,14.20
2017,04,30,14,08,14.30
2017,04,30,14,09,14.30
2017,04,30,14,10,14.40
2017,04,30,14,11,14.50
2017,04,30,14,12,14.60
2017,04,30,14,13,14.70
2017,04,30,14,14,14.80
2017,04,30,14,15,14.80
2017,04,30,14,16,14.80
2017,04,30,14,17,14.80
2017,04,30,14,18,14.70
2017,04,30,14,19,14.60
2017,04,30,14,20,14.60
2017,04,30,14,21,14.60
2017,04,30,14,22,14.70
2017,04,30,14,23,14.70
2017,04,30,14,24,14.70
2017,04,30,14,25,14.70
2017,04,30,14,26,14.70
2017,04,30,14,27,14.80
2017,04,30,14,28,14.80
2017,04,30,14,29,14.90
2017,04,30,14,30,14.90
2017,04,30,14,31,15.00
2017,04,30,14,32,14.90
2017,04,30,14,33,14.80
2017,04,30,14,34,14.70
2017,04,30,14,35,14.60
2017,04,30,14,36,14.40
2017,04,30,14,37,14.30
2017,04,30,14,38,14.30
2017,04,30,14,39,14.30
2017,04,30,14,40,14.20
2017,04,30,14,41,14.20
2017,04,30,14,42,14.20
2017,04,30,14,43,14.20
2017,04,30,14,44,14.20
2017,04,30,14,45,14.30
2017,04,30,14,46,14.40
2017,04,30,14,47,14.40
2017,04,30,14,48,14.50
2017,04,30,14,49,14.50
2017,04,30,14,50,14.40
2017,04,30,14,51,14.40
2017,04,30,14,52,14.30
2017,04,30,14,53,14.30
2017,04,30,14,54,14.30
2017,04,30,14,55,14.30
2017,04,30,14,56,14.30
2017,04,30,14,57,14.30
2017,04,30,14,58,14.30
2017,04,30,14,59,14.30
2017,04,30,15,00,14.20
2017,04,30,15,01,14.20
2017,04,30,15,02,14.10
2017,04,30,15,03,14.00
2017,04,30,15,04,13.90
2017,04,30,15,05,13.90
2017,04,30,15,06,13.90
2017,04,30,15,07,13.90
2017,04,30,15,08,14.00
2017,04,30,15,09,14.10
2017,04,30,15,10,14.20
2017,04,30,15,11,14.30
2017,04,30,15,12,14.30
2017,04,30,15,13,14.30
2017,04,30,15,14,14.30
2017,04,30,15,15,14.20
2017,04,30,15,16,14.20
2017,04,30,15,17,14.20
2017,04,30,15,18,14.20
2017,04,30,15,19,14.30
2017,04,30,15,20,14.40
2017,04,30,15,21,14.50
2017,04,30,15,22,14.60
2017,04,30,15,23,14.60
2017,04,30,15,24,14.60
2017,04,30,15,25,14.60
2017,04,30,15,26,14.70
2017,04,30,15,27,14.70
2017,04,30,15,28,14.80
2017,04,30,15,29,14.80
2017,04,30,15,30,14.80
2017,04,30,15,31,14.80
2017,04,30,15,32,14.80
2017,04,30,15,33,14.80
2017,04,30,15,34,14.90
2017,04,30,15,35,15.00
2017,04,30,15,36,15.00
2017,04,30,15,37,14.90
2017,04,30,15,38,14.90
2017,04,30,15,39,14.80
2017,04,30,15,40,14.80
2017,04,30,15,41,14.80
2017,04,30,15,42,14.80
2017,04,30,15,43,14.70
2017,04,30,15,44,14.50
2017,04,30,15,45,14.40
2017,04,30,15,46,14.30
2017,04,30,15,47,14.20
2017,04,30,15,48,14.20
2017,04,30,15,49,14.20
2017,04,30,15,50,14.20
2017,04,30,15,51,14.30
2017,04,30,15,52,14.40
2017,04,30,15,53,14.50
2017,04,30,15,54,14.50
2017,04,30,15,55,14.70
2017,04,30,15,56,14.80
2017,04,30,15,57,14.90
2017,04,30,15,58,15.00
2017,04,30,15,59,15.10
2017,04,30,16,00,15.20
2017,04,30,16,01,15.20
2017,04,30,16,02,15.10
2017,04,30,16,03,15.10
2017,04,30,16,04,15.10
2017,04,30,16,05,15.10
2017,04,30,16,06,15.20
2017,04,30,16,07,15.30
2017,04,30,16,08,15.30
2017,04,30,16,09,15.30
2017,04,30,16,10,15.20
2017,04,30,16,11,15.20
2017,04,30,16,12,15.30
2017,04,30,16,13,15.40
2017,04,30,16,14,15.50
2017,04,30,16,15,15.60
2017,04,30,16,16,15.70
2017,04,30,16,17,15.70
2017,04,30,16,18,15.70
2017,04,30,16,19,15.60
2017,04,30,16,20,15.50
2017,04,30,16,21,15.50
2017,04,30,16,22,15.40
2017,04,30,16,23,15.40
2017,04,30,16,24,15.30
2017,04,30,16,25,15.30
2017,04,30,16,26,15.30
2017,04,30,16,27,15.30
2017,04,30,16,28,15.30
2017,04,30,16,29,15.30
2017,04,30,16,30,15.40
2017,04,30,16,31,15.40
2017,04,30,16,32,15.30
2017,04,30,16,33,15.30
2017,04,30,16,34,15.30
2017,04,30,16,35,15.30
2017,04,30,16,36,15.20
2017,04,30,16,37,15.10
2017,04,30,16,38,15.00
2017,04,30,16,39,15.00
2017,04,30,16,40,15.10
2017,04,30,16,41,15.20
2017,04,30,16,42,15.30
2017,04,30,16,43,15.30
2017,04,30,16,44,15.40
2017,04,30,16,45,15.50
2017,04,30,16,46,15.50
2017,04,30,16,47,15.60
2017,04,30,16,48,15.60
2017,04,30,16,49,15.60
2017,04,30,16,50,15.60
2017,04,30,16,51,15.70
2017,04,30,16,52,15.60
2017,04,30,16,53,15.60
2017,04,30,16,54,15.50
2017,04,30,16,55,15.40
2017,04,30,16,56,15.30
2017,04,30,16,57,15.20
2017,04,30,16,58,15.10
2017,04,30,16,59,15.10
2017,04,30,17,00,15.00
2017,04,30,17,01,14.90
2017,04,30,17,02,14.90
2017,04,30,17,03,14.90
2017,04,30,17,04,14.90
2017,04,30,17,05,14.90
2017,04,30,17,06,14.90
2017,04,30,17,07,14.90
2017,04,30,17,08,14.90
2017,04,30,17,09,14.90
2017,04,30,17,10,14.90
2017,04,30,17,11,14.90
2017,04,30,17,12,14.90
2017,04,30,17,13,14.80
2017,04,30,17,14,14.80
2017,04,30,17,15,14.70
2017,04,30,17,16,14.70
2017,04,30,17,17,14.70
2017,04,30,17,18,14.60
2017,04,30,17,19,14.50
2017,04,30,17,20,14.50
2017,04,30,17,21,14.50
2017,04,30,17,22,14.50
2017,04,30,17,23,14.50
2017,04,30,17,24,14.50
2017,04,30,17,25,14.50
2017,04,30,17,26,14.40
2017,04,30,17,27,14.40
2017,04,30,17,28,14.30
2017,04,30,17,29,14.30
2017,04,30,17,30,14.20
2017,04,30,17,31,14.10
2017,04,30,17,32,14.00
2017,04,30,17,33,13.90
2017,04,30,17,34,13.80
2017,04,30,17,35,13.70
2017,04,30,17,36,13.70
2017,04,30,17,37,13.60
2017,04,30,17,38,13.50
2017,04,30,17,39,13.50
2017,04,30,17,40,13.40
2017,04,30,17,41,13.40
2017,04,30,17,42,13.40
2017,04,30,17,43,13.40